Time,TemperatureF,DewpointF,PressureIn,WindDirection,WindDirectionDegrees,WindSpeedMPH,WindSpeedGustMPH,Humidity,HourlyPrecipIn,Conditions,Clouds,dailyrainin,SoftwareType,DateUTC
2013-04-17 00:02:00,7.0,0.0,-100.00,NNE,18,15.0,26.0,73,-99.99,,,-99.99,,2013-04-17 06:02:00,
2013-04-17 00:12:00,7.0,0.0,-100.00,NNE,18,15.0,26.0,73,-99.99,,,-99.99,,2013-04-17 06:12:00,
2013-04-17 00:22:00,6.0,0.0,-100.00,NNE,17,16.0,24.0,75,-99.99,,,-99.99,,2013-04-17 06:22:00,
2013-04-17 00:32:00,6.0,0.0,-100.00,NNE,14,18.0,26.0,76,-99.99,,,-99.99,,2013-04-17 06:32:00,
2013-04-17 00:42:00,6.0,0.0,-100.00,NNE,14,18.0,26.0,76,-99.99,,,-99.99,,2013-04-17 06:42:00,
2013-04-17 00:52:00,6.0,0.0,-100.00,NNE,20,15.0,22.0,76,-99.99,,,-99.99,,2013-04-17 06:52:00,
2013-04-17 01:02:00,6.0,0.0,-100.00,NNE,14,14.0,22.0,76,-99.99,,,-99.99,,2013-04-17 07:02:00,
2013-04-17 01:12:00,6.0,0.0,-100.00,NNE,14,14.0,22.0,76,-99.99,,,-99.99,,2013-04-17 07:12:00,
2013-04-17 01:22:00,6.0,0.0,-100.00,NNE,12,15.0,22.0,75,-99.99,,,-99.99,,2013-04-17 07:22:00,
2013-04-17 01:32:00,6.0,0.0,-100.00,North,11,16.0,23.0,76,-99.99,,,-99.99,,2013-04-17 07:32:00,
2013-04-17 01:42:00,6.0,0.0,-100.00,North,11,16.0,23.0,76,-99.99,,,-99.99,,2013-04-17 07:42:00,
2013-04-17 01:52:00,6.0,0.0,-100.00,NNE,21,17.0,22.0,77,-99.99,,,-99.99,,2013-04-17 07:52:00,
2013-04-17 02:02:00,6.0,0.0,-100.00,NNE,16,14.0,21.0,77,-99.99,,,-99.99,,2013-04-17 08:02:00,
2013-04-17 02:12:00,6.0,0.0,-100.00,NNE,16,14.0,21.0,77,-99.99,,,-99.99,,2013-04-17 08:12:00,
2013-04-17 02:22:00,6.0,0.0,-100.00,NNE,25,10.0,15.0,75,-99.99,,,-99.99,,2013-04-17 08:22:00,
2013-04-17 02:32:00,7.0,1.0,-100.00,NNE,28,13.0,19.0,75,-99.99,,,-99.99,,2013-04-17 08:32:00,
2013-04-17 02:42:00,7.0,1.0,-100.00,NNE,28,13.0,19.0,75,-99.99,,,-99.99,,2013-04-17 08:42:00,
2013-04-17 02:52:00,7.0,1.0,-100.00,NNE,27,11.0,16.0,75,-99.99,,,-99.99,,2013-04-17 08:52:00,
2013-04-17 03:02:00,6.0,0.0,-100.00,NNE,24,10.0,15.0,77,-99.99,,,-99.99,,2013-04-17 09:02:00,
2013-04-17 03:12:00,6.0,0.0,-100.00,NNE,24,10.0,15.0,77,-99.99,,,-99.99,,2013-04-17 09:12:00,
2013-04-17 03:22:00,6.0,1.0,-100.00,NNE,20,14.0,20.0,78,-99.99,,,-99.99,,2013-04-17 09:22:00,
2013-04-17 03:32:00,6.0,1.0,-100.00,NNE,18,15.0,20.0,78,-99.99,,,-99.99,,2013-04-17 09:32:00,
2013-04-17 03:42:00,6.0,1.0,-100.00,NNE,18,15.0,20.0,78,-99.99,,,-99.99,,2013-04-17 09:42:00,
2013-04-17 03:52:00,5.0,0.0,-100.00,NNE,21,13.0,18.0,79,-99.99,,,-99.99,,2013-04-17 09:52:00,
2013-04-17 04:02:00,5.0,0.0,-100.00,NNE,20,12.0,17.0,79,-99.99,,,-99.99,,2013-04-17 10:02:00,
2013-04-17 04:12:00,5.0,0.0,-100.00,NNE,20,12.0,17.0,79,-99.99,,,-99.99,,2013-04-17 10:12:00,
2013-04-17 04:23:00,6.0,1.0,-100.00,NNE,19,10.0,13.0,78,-99.99,,,-99.99,,2013-04-17 10:23:00,
2013-04-17 04:32:00,6.0,0.0,-100.00,NNE,23,9.0,14.0,77,-99.99,,,-99.99,,2013-04-17 10:32:00,
2013-04-17 04:42:00,6.0,0.0,-100.00,NNE,23,9.0,14.0,77,-99.99,,,-99.99,,2013-04-17 10:42:00,
2013-04-17 04:52:00,6.0,0.0,-100.00,NNE,30,9.0,14.0,77,-99.99,,,-99.99,,2013-04-17 10:52:00,
2013-04-17 05:02:00,6.0,0.0,-100.00,NNE,27,9.0,12.0,77,-99.99,,,-99.99,,2013-04-17 11:02:00,
2013-04-17 05:11:00,6.0,0.0,-100.00,NNE,27,9.0,12.0,77,-99.99,,,-99.99,,2013-04-17 11:11:00,
2013-04-17 05:22:00,6.0,0.0,-100.00,NE,37,7.0,11.0,77,-99.99,,,-99.99,,2013-04-17 11:22:00,
2013-04-17 05:32:00,5.0,-1.0,-100.00,NE,34,8.0,12.0,77,-99.99,,,-99.99,,2013-04-17 11:32:00,
2013-04-17 05:42:00,5.0,-1.0,-100.00,NE,34,8.0,12.0,77,-99.99,,,-99.99,,2013-04-17 11:42:00,
2013-04-17 05:52:00,5.0,0.0,-100.00,NE,35,9.0,14.0,79,-99.99,,,-99.99,,2013-04-17 11:52:00,
2013-04-17 06:02:00,4.0,-1.0,-100.00,NNE,29,12.0,16.0,79,-99.99,,,-99.99,,2013-04-17 12:02:00,
2013-04-17 06:12:00,4.0,-1.0,-100.00,NNE,29,12.0,16.0,79,-99.99,,,-99.99,,2013-04-17 12:12:00,
2013-04-17 06:22:00,4.0,-1.0,-100.00,NNE,30,12.0,17.0,79,-99.99,,,-99.99,,2013-04-17 12:22:00,
2013-04-17 06:32:00,4.0,-1.0,-100.00,NNE,30,10.0,16.0,80,-99.99,,,-99.99,,2013-04-17 12:32:00,
2013-04-17 06:42:00,4.0,-1.0,-100.00,NNE,30,10.0,16.0,80,-99.99,,,-99.99,,2013-04-17 12:42:00,
2013-04-17 06:52:00,5.0,0.0,-100.00,NNE,21,8.0,12.0,79,-99.99,,,-99.99,,2013-04-17 12:52:00,
2013-04-17 07:02:00,5.0,0.0,-100.00,NNE,17,9.0,14.0,78,-99.99,,,-99.99,,2013-04-17 13:02:00,
2013-04-17 07:12:00,5.0,0.0,-100.00,NNE,17,9.0,14.0,78,-99.99,,,-99.99,,2013-04-17 13:12:00,
2013-04-17 07:22:00,5.0,0.0,-100.00,NNE,19,7.0,11.0,78,-99.99,,,-99.99,,2013-04-17 13:22:00,
2013-04-17 07:32:00,5.0,-1.0,-100.00,NNE,32,3.0,7.0,77,-99.99,,,-99.99,,2013-04-17 13:32:00,
2013-04-17 07:42:00,5.0,-1.0,-100.00,NNE,32,3.0,7.0,77,-99.99,,,-99.99,,2013-04-17 13:42:00,
2013-04-17 07:52:00,6.0,0.0,-100.00,NNE,24,2.0,5.0,76,-99.99,,,-99.99,,2013-04-17 13:52:00,
2013-04-17 08:02:00,6.0,0.0,-100.00,East,80,1.0,4.0,76,-99.99,,,-99.99,,2013-04-17 14:02:00,
2013-04-17 08:12:00,6.0,0.0,-100.00,East,80,1.0,4.0,76,-99.99,,,-99.99,,2013-04-17 14:12:00,
2013-04-17 08:22:00,6.0,0.0,-100.00,East,83,3.0,6.0,76,-99.99,,,-99.99,,2013-04-17 14:22:00,
2013-04-17 08:32:00,6.0,0.0,-100.00,SE,140,2.0,4.0,76,-99.99,,,-99.99,,2013-04-17 14:32:00,
2013-04-17 08:42:00,6.0,0.0,-100.00,SE,140,2.0,4.0,76,-99.99,,,-99.99,,2013-04-17 14:42:00,
2013-04-17 08:52:00,7.0,0.0,-100.00,ESE,103,1.0,4.0,74,-99.99,,,-99.99,,2013-04-17 14:52:00,
2013-04-17 09:02:00,7.0,0.0,-100.00,NE,40,4.0,9.0,73,-99.99,,,-99.99,,2013-04-17 15:02:00,
2013-04-17 09:12:00,7.0,0.0,-100.00,NE,40,4.0,9.0,73,-99.99,,,-99.99,,2013-04-17 15:12:00,
2013-04-17 09:22:00,7.0,0.0,-100.00,NE,47,5.0,9.0,72,-99.99,,,-99.99,,2013-04-17 15:22:00,
2013-04-17 09:33:00,7.0,0.0,-100.00,ESE,105,3.0,6.0,71,-99.99,,,-99.99,,2013-04-17 15:33:00,
2013-04-17 09:42:00,7.0,0.0,-100.00,ESE,105,3.0,6.0,71,-99.99,,,-99.99,,2013-04-17 15:42:00,
2013-04-17 09:53:00,8.0,0.0,-100.00,South,174,2.0,4.0,68,-99.99,,,-99.99,,2013-04-17 15:53:00,
2013-04-17 10:03:00,9.0,0.0,-100.00,NW,319,1.0,6.0,65,-99.99,,,-99.99,,2013-04-17 16:03:00,
2013-04-17 10:12:00,9.0,0.0,-100.00,NW,319,1.0,6.0,65,-99.99,,,-99.99,,2013-04-17 16:12:00,
2013-04-17 10:22:00,9.0,0.0,-100.00,NNE,25,2.0,5.0,65,-99.99,,,-99.99,,2013-04-17 16:22:00,
2013-04-17 10:32:00,11.0,1.0,-100.00,East,85,2.0,5.0,63,-99.99,,,-99.99,,2013-04-17 16:32:00,
2013-04-17 10:42:00,11.0,1.0,-100.00,East,85,2.0,5.0,63,-99.99,,,-99.99,,2013-04-17 16:42:00,
2013-04-17 10:52:00,12.0,2.0,-100.00,NNW,334,1.0,5.0,62,-99.99,,,-99.99,,2013-04-17 16:52:00,
2013-04-17 11:02:00,12.0,2.0,-100.00,East,83,3.0,9.0,63,-99.99,,,-99.99,,2013-04-17 17:02:00,
2013-04-17 11:12:00,12.0,2.0,-100.00,East,83,3.0,9.0,63,-99.99,,,-99.99,,2013-04-17 17:12:00,
2013-04-17 11:22:00,14.0,2.0,-100.00,North,5,3.0,7.0,58,-99.99,,,-99.99,,2013-04-17 17:22:00,
2013-04-17 11:33:00,15.0,2.0,-100.00,NE,51,3.0,13.0,56,-99.99,,,-99.99,,2013-04-17 17:33:00,
2013-04-17 11:42:00,15.0,2.0,-100.00,NE,51,3.0,13.0,56,-99.99,,,-99.99,,2013-04-17 17:42:00,
2013-04-17 11:52:00,14.0,2.0,-100.00,NE,34,3.0,9.0,58,-99.99,,,-99.99,,2013-04-17 17:52:00,
2013-04-17 12:02:00,17.0,3.0,-100.00,WNW,284,4.0,9.0,54,-99.99,,,-99.99,,2013-04-17 18:02:00,
2013-04-17 12:12:00,17.0,3.0,-100.00,WNW,284,4.0,9.0,54,-99.99,,,-99.99,,2013-04-17 18:12:00,
2013-04-17 12:22:00,19.0,4.0,-100.00,North,10,2.0,8.0,51,-99.99,,,-99.99,,2013-04-17 18:22:00,
2013-04-17 12:32:00,19.0,3.0,-100.00,NW,319,4.0,11.0,49,-99.99,,,-99.99,,2013-04-17 18:32:00,
2013-04-17 12:42:00,19.0,3.0,-100.00,NW,319,4.0,11.0,49,-99.99,,,-99.99,,2013-04-17 18:42:00,
2013-04-17 12:52:00,18.0,3.0,-100.00,SSE,152,3.0,9.0,51,-99.99,,,-99.99,,2013-04-17 18:52:00,
2013-04-17 13:02:00,20.0,4.0,-100.00,South,177,8.0,15.0,49,-99.99,,,-99.99,,2013-04-17 19:02:00,
2013-04-17 13:12:00,20.0,4.0,-100.00,South,177,8.0,15.0,49,-99.99,,,-99.99,,2013-04-17 19:12:00,
2013-04-17 13:22:00,20.0,3.0,-100.00,South,185,6.0,11.0,47,-99.99,,,-99.99,,2013-04-17 19:22:00,
2013-04-17 13:32:00,19.0,3.0,-100.00,SW,223,2.0,5.0,48,-99.99,,,-99.99,,2013-04-17 19:32:00,
2013-04-17 13:42:00,19.0,3.0,-100.00,SW,223,2.0,5.0,48,-99.99,,,-99.99,,2013-04-17 19:42:00,
2013-04-17 13:52:00,17.0,4.0,-100.00,SSW,197,2.0,5.0,55,-99.99,,,-99.99,,2013-04-17 19:52:00,
2013-04-17 14:02:00,18.0,4.0,-100.00,WNW,284,3.0,8.0,53,-99.99,,,-99.99,,2013-04-17 20:02:00,
2013-04-17 14:12:00,18.0,4.0,-100.00,WNW,284,3.0,8.0,53,-99.99,,,-99.99,,2013-04-17 20:12:00,
2013-04-17 14:22:00,18.0,5.0,-100.00,WSW,253,2.0,9.0,56,-99.99,,,-99.99,,2013-04-17 20:22:00,
2013-04-17 14:32:00,18.0,5.0,-100.00,NW,310,6.0,14.0,57,-99.99,,,-99.99,,2013-04-17 20:32:00,
2013-04-17 14:42:00,18.0,5.0,-100.00,NW,310,6.0,14.0,57,-99.99,,,-99.99,,2013-04-17 20:42:00,
2013-04-17 14:52:00,20.0,6.0,-100.00,NW,321,8.0,21.0,54,-99.99,,,-99.99,,2013-04-17 20:52:00,
2013-04-17 15:02:00,21.0,4.0,-100.00,NW,320,12.0,24.0,48,-99.99,,,-99.99,,2013-04-17 21:02:00,
2013-04-17 15:12:00,21.0,4.0,-100.00,NW,320,12.0,24.0,48,-99.99,,,-99.99,,2013-04-17 21:12:00,
2013-04-17 15:22:00,19.0,3.0,-100.00,NW,322,10.0,23.0,49,-99.99,,,-99.99,,2013-04-17 21:22:00,
2013-04-17 15:32:00,17.0,4.0,-100.00,NW,324,15.0,26.0,55,-99.99,,,-99.99,,2013-04-17 21:32:00,
2013-04-17 15:42:00,17.0,4.0,-100.00,NW,324,15.0,26.0,55,-99.99,,,-99.99,,2013-04-17 21:42:00,
2013-04-17 15:53:00,19.0,5.0,-100.00,NW,319,10.0,20.0,53,-99.99,,,-99.99,,2013-04-17 21:53:00,
2013-04-17 16:02:00,18.0,5.0,-100.00,NW,322,13.0,23.0,55,-99.99,,,-99.99,,2013-04-17 22:02:00,
2013-04-17 16:12:00,18.0,5.0,-100.00,NW,322,13.0,23.0,55,-99.99,,,-99.99,,2013-04-17 22:12:00,
2013-04-17 16:22:00,18.0,5.0,-100.00,NW,315,9.0,17.0,55,-99.99,,,-99.99,,2013-04-17 22:22:00,
2013-04-17 16:33:00,18.0,4.0,-100.00,NW,307,8.0,23.0,54,-99.99,,,-99.99,,2013-04-17 22:33:00,
2013-04-17 16:42:00,18.0,4.0,-100.00,NW,307,8.0,23.0,54,-99.99,,,-99.99,,2013-04-17 22:42:00,
2013-04-17 16:53:00,17.0,5.0,-100.00,NW,321,10.0,22.0,59,-99.99,,,-99.99,,2013-04-17 22:53:00,
2013-04-17 17:02:00,16.0,7.0,-100.00,NW,313,12.0,22.0,67,-99.99,,,-99.99,,2013-04-17 23:02:00,
2013-04-17 17:12:00,16.0,7.0,-100.00,NW,313,12.0,22.0,67,-99.99,,,-99.99,,2013-04-17 23:12:00,
2013-04-17 17:22:00,16.0,7.0,-100.00,WNW,299,8.0,19.0,68,-99.99,,,-99.99,,2013-04-17 23:22:00,
2013-04-17 17:32:00,17.0,7.0,-100.00,NW,309,7.0,19.0,64,-99.99,,,-99.99,,2013-04-17 23:32:00,
2013-04-17 17:42:00,17.0,7.0,-100.00,NW,309,7.0,19.0,64,-99.99,,,-99.99,,2013-04-17 23:42:00,
2013-04-17 17:52:00,15.0,5.0,-100.00,NW,323,10.0,20.0,64,-99.99,,,-99.99,,2013-04-17 23:52:00,
2013-04-17 18:02:00,14.0,5.0,-100.00,NW,306,8.0,18.0,67,-99.99,,,-99.99,,2013-04-18 00:02:00,
2013-04-17 18:12:00,14.0,5.0,-100.00,NW,306,8.0,18.0,67,-99.99,,,-99.99,,2013-04-18 00:12:00,
2013-04-17 18:22:00,15.0,6.0,-100.00,NNW,327,13.0,24.0,67,-99.99,,,-99.99,,2013-04-18 00:22:00,
2013-04-17 18:32:00,15.0,6.0,-100.00,NNW,327,13.0,24.0,67,-99.99,,,-99.99,,2013-04-18 00:32:00,
2013-04-17 18:42:00,15.0,6.0,-100.00,NNW,327,13.0,24.0,67,-99.99,,,-99.99,,2013-04-18 00:42:00,
2013-04-17 18:52:00,15.0,6.0,-100.00,NW,315,11.0,20.0,66,-99.99,,,-99.99,,2013-04-18 00:52:00,
2013-04-17 19:02:00,13.0,5.0,-100.00,NW,314,12.0,20.0,69,-99.99,,,-99.99,,2013-04-18 01:02:00,
2013-04-17 19:12:00,13.0,5.0,-100.00,NW,314,12.0,20.0,69,-99.99,,,-99.99,,2013-04-18 01:12:00,
2013-04-17 19:22:00,12.0,6.0,-100.00,NW,321,13.0,24.0,77,-99.99,,,-99.99,,2013-04-18 01:22:00,
2013-04-17 19:32:00,12.0,7.0,-100.00,NW,321,16.0,23.0,80,-99.99,,,-99.99,,2013-04-18 01:32:00,
2013-04-17 19:42:00,12.0,7.0,-100.00,NW,321,16.0,23.0,80,-99.99,,,-99.99,,2013-04-18 01:42:00,
2013-04-17 19:52:00,11.0,6.0,-100.00,NW,325,18.0,25.0,80,-99.99,,,-99.99,,2013-04-18 01:52:00,
2013-04-17 20:02:00,11.0,6.0,-100.00,NNW,333,16.0,21.0,79,-99.99,,,-99.99,,2013-04-18 02:02:00,
2013-04-17 20:12:00,11.0,6.0,-100.00,NNW,333,16.0,21.0,79,-99.99,,,-99.99,,2013-04-18 02:12:00,
2013-04-17 20:22:00,11.0,5.0,-100.00,NNW,330,14.0,22.0,75,-99.99,,,-99.99,,2013-04-18 02:22:00,
2013-04-17 20:32:00,10.0,3.0,-100.00,NNW,327,12.0,20.0,73,-99.99,,,-99.99,,2013-04-18 02:32:00,
2013-04-17 20:42:00,10.0,3.0,-100.00,NNW,327,12.0,20.0,73,-99.99,,,-99.99,,2013-04-18 02:42:00,
2013-04-17 20:52:00,10.0,3.0,-100.00,NNW,327,12.0,20.0,73,-99.99,,,-99.99,,2013-04-18 02:52:00,
2013-04-17 21:02:00,10.0,4.0,-100.00,NNW,329,15.0,21.0,75,-99.99,,,-99.99,,2013-04-18 03:02:00,
2013-04-17 21:12:00,10.0,4.0,-100.00,NNW,329,15.0,21.0,75,-99.99,,,-99.99,,2013-04-18 03:12:00,
2013-04-17 21:22:00,10.0,5.0,-100.00,NW,318,9.0,20.0,79,-99.99,,,-99.99,,2013-04-18 03:22:00,
2013-04-17 21:33:00,9.0,4.0,-100.00,NW,321,9.0,18.0,78,-99.99,,,-99.99,,2013-04-18 03:33:00,
2013-04-17 21:43:00,9.0,4.0,-100.00,NW,321,9.0,18.0,78,-99.99,,,-99.99,,2013-04-18 03:43:00,
2013-04-17 21:53:00,9.0,2.0,-100.00,NNW,328,10.0,17.0,73,-99.99,,,-99.99,,2013-04-18 03:53:00,
2013-04-17 22:03:00,9.0,2.0,-100.00,NW,319,7.0,15.0,71,-99.99,,,-99.99,,2013-04-18 04:03:00,
2013-04-17 22:13:00,9.0,2.0,-100.00,NW,319,7.0,15.0,71,-99.99,,,-99.99,,2013-04-18 04:13:00,
2013-04-17 22:23:00,8.0,1.0,-100.00,NW,320,7.0,12.0,71,-99.99,,,-99.99,,2013-04-18 04:23:00,
2013-04-17 22:33:00,8.0,1.0,-100.00,WNW,301,6.0,9.0,71,-99.99,,,-99.99,,2013-04-18 04:33:00,
2013-04-17 22:43:00,8.0,1.0,-100.00,WNW,301,6.0,9.0,71,-99.99,,,-99.99,,2013-04-18 04:43:00,
2013-04-17 22:53:00,8.0,0.0,-100.00,WNW,291,5.0,9.0,68,-99.99,,,-99.99,,2013-04-18 04:53:00,
2013-04-17 23:02:00,7.0,-2.0,-100.00,WSW,256,5.0,8.0,67,-99.99,,,-99.99,,2013-04-18 05:02:00,
2013-04-17 23:12:00,7.0,-2.0,-100.00,WSW,256,5.0,8.0,67,-99.99,,,-99.99,,2013-04-18 05:12:00,
2013-04-17 23:22:00,6.0,-3.0,-100.00,WNW,282,9.0,12.0,66,-99.99,,,-99.99,,2013-04-18 05:22:00,
2013-04-17 23:32:00,6.0,-3.0,-100.00,WNW,286,9.0,12.0,65,-99.99,,,-99.99,,2013-04-18 05:32:00,
2013-04-17 23:42:00,6.0,-3.0,-100.00,WNW,286,9.0,12.0,65,-99.99,,,-99.99,,2013-04-18 05:42:00,
2013-04-17 23:52:00,6.0,-3.0,-100.00,West,276,6.0,9.0,65,-99.99,,,-99.99,,2013-04-18 05:52:00,